| time (UTC) | temp F | wind direction | speed MPH | gust MPH | rain 1hr in | rain 24hr in | rain mn in | humidity % | barometer mb |
| 20260505054524 | 72 | 167 | 8.0 | 20.0 | 0.00 | 0.00 | 0.00 | 80 | 1003.6 |
| 20260505053603 | 73 | 167 | 7.0 | 17.0 | 0.00 | 0.00 | 0.00 | 79 | 1003.4 |
| 20260505052724 | 73 | 168 | 7.0 | 15.0 | 0.00 | 0.00 | 0.00 | 79 | 1003.6 |
| 20260505051803 | 73 | 169 | 8.0 | 20.0 | 0.00 | 0.00 | 0.00 | 78 | 1003.8 |
| 20260505050925 | 73 | 168 | 8.0 | 18.0 | 0.00 | 0.00 | 0.00 | 77 | 1003.8 |
| 20260505040903 | 74 | 171 | 8.0 | 16.0 | 0.00 | 0.00 | 0.00 | 75 | 1004.2 |
| 20260505040004 | 74 | 167 | 8.0 | 17.0 | 0.00 | 0.00 | 0.00 | 74 | 1004.1 |
| 20260505035403 | 75 | 171 | 8.0 | 24.0 | 0.00 | 0.00 | 0.00 | 74 | 1004.1 |
| 20260505034504 | 75 | 171 | 8.0 | 16.0 | 0.00 | 0.00 | 0.00 | 74 | 1004.3 |
| 20260505033603 | 75 | 168 | 7.0 | 20.0 | 0.00 | 0.00 | 0.00 | 74 | 1003.9 |
| 20260505032703 | 75 | 167 | 6.0 | 17.0 | 0.00 | 0.00 | 0.00 | 74 | 1003.9 |
| 20260505031803 | 75 | 170 | 8.0 | 18.0 | 0.00 | 0.00 | 0.00 | 74 | 1004.0 |
| 20260505030903 | 75 | 168 | 7.0 | 16.0 | 0.00 | 0.00 | 0.00 | 74 | 1004.1 |
| 20260505030004 | 75 | 170 | 6.0 | 15.0 | 0.00 | 0.00 | 0.00 | 74 | 1004.1 |
| 20260505025403 | 75 | 165 | 7.0 | 15.0 | 0.00 | 0.00 | 0.00 | 74 | 1004.1 |
| 20260505024503 | 75 | 167 | 7.0 | 15.0 | 0.00 | 0.00 | 0.00 | 74 | 1003.8 |
| 20260505023624 | 75 | 169 | 7.0 | 17.0 | 0.00 | 0.00 | 0.00 | 74 | 1003.7 |
| 20260505022703 | 75 | 164 | 6.0 | 14.0 | 0.00 | 0.00 | 0.00 | 73 | 1003.6 |
| 20260505021825 | 75 | 166 | 7.0 | 14.0 | 0.00 | 0.00 | 0.00 | 73 | 1003.6 |
| 20260505020903 | 75 | 165 | 6.0 | 11.0 | 0.00 | 0.00 | 0.00 | 73 | 1003.7 |
| 20260505020003 | 75 | 162 | 7.0 | 16.0 | 0.00 | 0.00 | 0.00 | 73 | 1003.5 |
| 20260505015403 | 75 | 160 | 7.0 | 16.0 | 0.00 | 0.00 | 0.00 | 73 | 1003.6 |
| 20260505014503 | 75 | 162 | 7.0 | 15.0 | 0.00 | 0.00 | 0.00 | 73 | 1003.5 |
| 20260505013625 | 75 | 160 | 6.0 | 13.0 | 0.00 | 0.00 | 0.00 | 73 | 1003.6 |
| 20260505012704 | 76 | 162 | 7.0 | 17.0 | 0.00 | 0.00 | 0.00 | 72 | 1003.6 |
| 20260505011804 | 76 | 164 | 6.0 | 12.0 | 0.00 | 0.00 | 0.00 | 72 | 1003.5 |
| 20260505010903 | 76 | 161 | 7.0 | 19.0 | 0.00 | 0.00 | 0.00 | 71 | 1003.4 |
| 20260505010004 | 76 | 163 | 7.0 | 18.0 | 0.00 | 0.00 | 0.00 | 71 | 1003.4 |
| 20260505005403 | 76 | 164 | 7.0 | 18.0 | 0.00 | 0.00 | 0.00 | 71 | 1003.4 |
| 20260505004503 | 76 | 164 | 7.0 | 16.0 | 0.00 | 0.00 | 0.00 | 71 | 1003.6 |
| 20260505003603 | 76 | 166 | 7.0 | 15.0 | 0.00 | 0.00 | 0.00 | 70 | 1003.7 |
| 20260505002704 | 77 | 163 | 7.0 | 17.0 | 0.00 | 0.00 | 0.00 | 70 | 1003.8 |
| 20260505001803 | 77 | 164 | 6.0 | 18.0 | 0.00 | 0.00 | 0.00 | 69 | 1003.9 |
| 20260505000903 | 77 | 159 | 7.0 | 18.0 | 0.00 | 0.00 | 0.00 | 69 | 1004.0 |
| 20260505000003 | 78 | 166 | 7.0 | 16.0 | 0.00 | 0.00 | 0.00 | 68 | 1003.9 |
| 20260504235403 | 78 | 167 | 6.0 | 16.0 | 0.00 | 0.00 | 0.00 | 68 | 1004.1 |
| 20260504234504 | 78 | 164 | 8.0 | 16.0 | 0.00 | 0.00 | 0.00 | 68 | 1004.1 |
| 20260504233603 | 78 | 161 | 8.0 | 18.0 | 0.00 | 0.00 | 0.00 | 67 | 1004.1 |
| 20260504232724 | 78 | 167 | 8.0 | 18.0 | 0.00 | 0.00 | 0.00 | 66 | 1004.2 |
| 20260504231803 | 79 | 166 | 8.0 | 20.0 | 0.00 | 0.00 | 0.00 | 67 | 1004.3 |
| 20260504230903 | 79 | 166 | 8.0 | 18.0 | 0.00 | 0.00 | 0.00 | 65 | 1004.5 |
| 20260504230003 | 79 | 165 | 8.0 | 18.0 | 0.00 | 0.00 | 0.00 | 66 | 1004.5 |
| 20260504225404 | 79 | 165 | 8.0 | 18.0 | 0.00 | 0.00 | 0.00 | 66 | 1004.5 |
| 20260504224503 | 79 | 165 | 9.0 | 25.0 | 0.00 | 0.00 | 0.00 | 64 | 1004.5 |
| 20260504223604 | 80 | 164 | 8.0 | 18.0 | 0.00 | 0.00 | 0.00 | 64 | 1004.6 |
| 20260504222703 | 80 | 166 | 8.0 | 22.0 | 0.00 | 0.00 | 0.00 | 63 | 1004.7 |
| 20260504221824 | 80 | 164 | 8.0 | 21.0 | 0.00 | 0.00 | 0.00 | 63 | 1004.8 |
| 20260504220903 | 80 | 165 | 7.0 | 17.0 | 0.00 | 0.00 | 0.00 | 63 | 1004.8 |
| 20260504220004 | 80 | 173 | 8.0 | 17.0 | 0.00 | 0.00 | 0.00 | 62 | 1004.8 |
| 20260504215403 | 80 | 167 | 9.0 | 24.0 | 0.00 | 0.00 | 0.00 | 62 | 1004.8 |
| 20260504214503 | 81 | 169 | 9.0 | 21.0 | 0.00 | 0.00 | 0.00 | 61 | 1005.1 |
| 20260504213624 | 81 | 164 | 9.0 | 21.0 | 0.00 | 0.00 | 0.00 | 61 | 1005.1 |
| 20260504212703 | 81 | 166 | 9.0 | 21.0 | 0.00 | 0.00 | 0.00 | 61 | 1005.2 |
| 20260504211803 | 81 | 168 | 10.0 | 22.0 | 0.00 | 0.00 | 0.00 | 61 | 1005.4 |
| 20260504210903 | 82 | 165 | 8.0 | 22.0 | 0.00 | 0.00 | 0.00 | 60 | 1005.5 |
| 20260504210004 | 82 | 169 | 8.0 | 18.0 | 0.00 | 0.00 | 0.00 | 61 | 1005.8 |
| 20260504205404 | 81 | 164 | 10.0 | 22.0 | 0.00 | 0.00 | 0.00 | 61 | 1005.7 |
| 20260504204503 | 82 | 166 | 9.0 | 27.0 | 0.00 | 0.00 | 0.00 | 60 | 1005.8 |
| 20260504203603 | 82 | 171 | 8.0 | 19.0 | 0.00 | 0.00 | 0.00 | 60 | 1006.1 |
| 20260504202703 | 82 | 168 | 8.0 | 19.0 | 0.00 | 0.00 | 0.00 | 60 | 1006.2 |
| 20260504201803 | 81 | 167 | 9.0 | 19.0 | 0.00 | 0.00 | 0.00 | 61 | 1006.6 |
| 20260504200903 | 82 | 168 | 9.0 | 20.0 | 0.00 | 0.00 | 0.00 | 59 | 1006.6 |
| 20260504200003 | 82 | 169 | 9.0 | 20.0 | 0.00 | 0.00 | 0.00 | 61 | 1006.9 |
| 20260504195403 | 82 | 168 | 8.0 | 20.0 | 0.00 | 0.00 | 0.00 | 60 | 1007.0 |
| 20260504194503 | 81 | 171 | 8.0 | 17.0 | 0.00 | 0.00 | 0.00 | 62 | 1007.3 |
| 20260504193603 | 80 | 164 | 10.0 | 21.0 | 0.00 | 0.00 | 0.00 | 61 | 1007.5 |
| 20260504192725 | 80 | 169 | 8.0 | 22.0 | 0.00 | 0.00 | 0.00 | 61 | 1007.6 |
| 20260504191803 | 80 | 164 | 9.0 | 20.0 | 0.00 | 0.00 | 0.00 | 63 | 1007.5 |
| 20260504190903 | 80 | 166 | 8.0 | 20.0 | 0.00 | 0.00 | 0.00 | 62 | 1007.7 |
| 20260504190003 | 80 | 163 | 9.0 | 19.0 | 0.00 | 0.00 | 0.00 | 62 | 1007.9 |
| 20260504185403 | 80 | 167 | 7.0 | 19.0 | 0.00 | 0.00 | 0.00 | 61 | 1008.0 |
| 20260504184524 | 79 | 167 | 8.0 | 18.0 | 0.00 | 0.00 | 0.00 | 63 | 1008.0 |
| 20260504183624 | 79 | 164 | 9.0 | 23.0 | 0.00 | 0.00 | 0.00 | 62 | 1008.2 |
| 20260504182703 | 78 | 166 | 9.0 | 23.0 | 0.00 | 0.00 | 0.00 | 63 | 1008.3 |
| 20260504181803 | 78 | 170 | 9.0 | 21.0 | 0.00 | 0.00 | 0.00 | 62 | 1008.7 |
| 20260504180903 | 78 | 169 | 8.0 | 20.0 | 0.00 | 0.00 | 0.00 | 63 | 1008.8 |
| 20260504180003 | 77 | 175 | 9.0 | 22.0 | 0.00 | 0.00 | 0.00 | 64 | 1008.8 |
| 20260504175403 | 77 | 171 | 9.0 | 23.0 | 0.00 | 0.00 | 0.00 | 64 | 1008.9 |
| 20260504174503 | 77 | 170 | 9.0 | 23.0 | 0.00 | 0.00 | 0.00 | 64 | 1009.0 |
| 20260504173603 | 76 | 172 | 10.0 | 24.0 | 0.00 | 0.00 | 0.00 | 63 | 1009.0 |
| 20260504172704 | 76 | 183 | 9.0 | 21.0 | 0.00 | 0.00 | 0.00 | 65 | 1009.2 |
| 20260504171803 | 76 | 178 | 8.0 | 16.0 | 0.00 | 0.00 | 0.00 | 65 | 1009.4 |
| 20260504170903 | 75 | 181 | 9.0 | 21.0 | 0.00 | 0.00 | 0.00 | 65 | 1009.7 |
| 20260504150924 | 70 | 178 | 9.0 | 20.0 | 0.00 | 0.00 | 0.00 | 73 | 1010.7 |
| 20260504140903 | 66 | 172 | 9.0 | 20.0 | 0.00 | 0.00 | 0.00 | 77 | 1010.9 |
| 20260504081803 | 60 | 171 | 4.0 | 9.0 | 0.00 | 0.00 | 0.00 | 78 | 1011.8 |
| 20260504080903 | 61 | 168 | 5.0 | 11.0 | 0.00 | 0.00 | 0.00 | 78 | 1011.8 |